contact:dominique.lefevre@mio.osupytheas.fr, maurice.libes@osupytheas.fr, didier.mallarino@osupytheas.fr
Project:EMSO http://www.emso-fr.org/EMSO-France
Depth: 2436.0 m
Title:EMSO Ligure Ouest : Data MII capteur CSTAR
DateTime,Latitude,Longitude,Instrument_Serial,Reference_Counts,Signal_Counts,Corrected_Signal_raw_counts,Calculated_Beam_c_inverse_meters,Internal_thermistor_counts
DateTime,Latitude,Longitude,Instrument_Serial,Reference_Counts,Signal_Counts,Corrected_Signal_raw_counts,Calculated_Beam_c_inverse_meters,Internal_thermistor_counts
2022-03-19T00:03:01,42.805,6.029,CST-1368DR,4841,5810,12808,0.793,551
2022-03-19T00:06:03,42.805,6.029,CST-1368DR,4841,5808,12804,0.794,551
2022-03-19T00:09:04,42.805,6.029,CST-1368DR,4841,5807,12801,0.795,551
2022-03-19T00:12:06,42.805,6.029,CST-1368DR,4841,5807,12801,0.795,551
2022-03-19T00:15:07,42.805,6.029,CST-1368DR,4841,5808,12804,0.794,551
2022-03-19T00:18:09,42.805,6.029,CST-1368DR,4841,5806,12799,0.796,551
2022-03-19T00:21:11,42.805,6.029,CST-1368DR,4841,5809,12804,0.794,551
2022-03-19T00:24:12,42.805,6.029,CST-1368DR,4841,5807,12802,0.795,551
2022-03-19T00:27:14,42.805,6.029,CST-1368DR,4841,5804,12793,0.798,551
2022-03-19T00:30:15,42.805,6.029,CST-1368DR,4841,5807,12801,0.795,551
2022-03-19T00:33:17,42.805,6.029,CST-1368DR,4841,5801,12788,0.799,551
2022-03-19T00:36:18,42.805,6.029,CST-1368DR,4841,5804,12794,0.797,551
2022-03-19T00:39:20,42.805,6.029,CST-1368DR,4841,5802,12789,0.799,551
2022-03-19T00:42:22,42.805,6.029,CST-1368DR,4841,5804,12794,0.797,551
2022-03-19T00:45:23,42.805,6.029,CST-1368DR,4841,5806,12798,0.796,551
2022-03-19T00:48:25,42.805,6.029,CST-1368DR,4841,5799,12784,0.800,551
2022-03-19T00:51:26,42.805,6.029,CST-1368DR,4841,5805,12797,0.796,551
2022-03-19T00:54:28,42.805,6.029,CST-1368DR,4841,5797,12779,0.802,551
2022-03-19T00:57:29,42.805,6.029,CST-1368DR,4841,5807,12800,0.795,551
2022-03-19T01:00:31,42.805,6.029,CST-1368DR,4841,5806,12799,0.796,551
2022-03-19T01:03:33,42.805,6.029,CST-1368DR,4841,5801,12787,0.799,551
2022-03-19T01:06:34,42.805,6.029,CST-1368DR,4841,5805,12796,0.797,551
2022-03-19T01:09:36,42.805,6.029,CST-1368DR,4841,5804,12794,0.797,551
2022-03-19T01:12:37,42.805,6.029,CST-1368DR,4841,5803,12793,0.798,551
2022-03-19T01:15:39,42.805,6.029,CST-1368DR,4841,5802,12790,0.799,551
2022-03-19T01:18:41,42.805,6.029,CST-1368DR,4841,5801,12788,0.799,551
2022-03-19T01:21:42,42.805,6.029,CST-1368DR,4841,5803,12792,0.798,551
2022-03-19T01:24:44,42.805,6.029,CST-1368DR,4841,5803,12792,0.798,551
2022-03-19T01:27:45,42.805,6.029,CST-1368DR,4841,5806,12799,0.796,551
2022-03-19T01:30:47,42.805,6.029,CST-1368DR,4841,5817,12822,0.789,551
2022-03-19T01:33:48,42.805,6.029,CST-1368DR,4841,5808,12802,0.795,551
2022-03-19T01:36:50,42.805,6.029,CST-1368DR,4841,5803,12793,0.798,551
2022-03-19T01:39:52,42.805,6.029,CST-1368DR,4841,5806,12798,0.796,551
2022-03-19T01:42:53,42.805,6.029,CST-1368DR,4841,5807,12801,0.795,551
2022-03-19T01:45:55,42.805,6.029,CST-1368DR,4841,5805,12797,0.796,551
2022-03-19T01:48:56,42.805,6.029,CST-1368DR,4841,5805,12797,0.796,551
2022-03-19T01:51:58,42.805,6.029,CST-1368DR,4841,5802,12791,0.798,551
2022-03-19T01:54:59,42.805,6.029,CST-1368DR,4841,5805,12797,0.796,551
2022-03-19T01:58:01,42.805,6.029,CST-1368DR,4841,5807,12800,0.795,551
2022-03-19T02:01:03,42.805,6.029,CST-1368DR,4841,5803,12792,0.798,551
2022-03-19T02:04:04,42.805,6.029,CST-1368DR,4841,5804,12794,0.797,551
2022-03-19T02:07:06,42.805,6.029,CST-1368DR,4841,5805,12796,0.797,551
2022-03-19T02:10:07,42.805,6.029,CST-1368DR,4841,5807,12801,0.795,551
2022-03-19T02:13:09,42.805,6.029,CST-1368DR,4841,5804,12794,0.797,551
2022-03-19T02:16:11,42.805,6.029,CST-1368DR,4841,5803,12793,0.798,551
2022-03-19T02:19:12,42.805,6.029,CST-1368DR,4841,5805,12797,0.796,551
2022-03-19T02:22:14,42.805,6.029,CST-1368DR,4841,5804,12794,0.797,551
2022-03-19T02:25:15,42.805,6.029,CST-1368DR,4841,5806,12799,0.796,551
2022-03-19T02:28:17,42.805,6.029,CST-1368DR,4841,5803,12793,0.798,551
2022-03-19T02:31:18,42.805,6.029,CST-1368DR,4841,5802,12790,0.799,551
2022-03-19T02:34:20,42.805,6.029,CST-1368DR,4841,5805,12796,0.797,551
2022-03-19T02:37:22,42.805,6.029,CST-1368DR,4841,5800,12786,0.800,551
2022-03-19T02:40:23,42.805,6.029,CST-1368DR,4841,5799,12784,0.800,551
2022-03-19T02:43:25,42.805,6.029,CST-1368DR,4841,5802,12790,0.799,551
2022-03-19T02:46:26,42.805,6.029,CST-1368DR,4841,5802,12790,0.799,551
2022-03-19T02:49:28,42.805,6.029,CST-1368DR,4841,5800,12785,0.800,551
2022-03-19T02:52:30,42.805,6.029,CST-1368DR,4841,5800,12786,0.800,551
2022-03-19T02:55:31,42.805,6.029,CST-1368DR,4841,5801,12787,0.799,551
2022-03-19T02:58:33,42.805,6.029,CST-1368DR,4841,5801,12788,0.799,551
2022-03-19T03:01:34,42.805,6.029,CST-1368DR,4841,5802,12789,0.799,551
2022-03-19T03:04:36,42.805,6.029,CST-1368DR,4841,5802,12789,0.799,551
2022-03-19T03:07:37,42.805,6.029,CST-1368DR,4841,5802,12791,0.798,551
2022-03-19T03:10:39,42.805,6.029,CST-1368DR,4841,5802,12790,0.799,551
2022-03-19T03:13:41,42.805,6.029,CST-1368DR,4841,5802,12790,0.799,551
2022-03-19T03:16:42,42.805,6.029,CST-1368DR,4841,5804,12794,0.797,551
2022-03-19T03:19:44,42.805,6.029,CST-1368DR,4841,5802,12791,0.798,551
2022-03-19T03:22:45,42.805,6.029,CST-1368DR,4841,5809,12805,0.794,551
2022-03-19T03:25:47,42.805,6.029,CST-1368DR,4841,5808,12803,0.794,551
2022-03-19T03:28:48,42.805,6.029,CST-1368DR,4841,5808,12802,0.795,551
2022-03-19T03:31:50,42.805,6.029,CST-1368DR,4841,5809,12804,0.794,551
2022-03-19T03:34:52,42.805,6.029,CST-1368DR,4841,5809,12806,0.794,551
2022-03-19T03:37:53,42.805,6.029,CST-1368DR,4841,5807,12800,0.795,551
2022-03-19T03:40:55,42.805,6.029,CST-1368DR,4841,5808,12804,0.794,551
2022-03-19T03:43:56,42.805,6.029,CST-1368DR,4841,5809,12804,0.794,551
2022-03-19T03:46:58,42.805,6.029,CST-1368DR,4841,5810,12807,0.793,551
2022-03-19T03:50:00,42.805,6.029,CST-1368DR,4841,5807,12802,0.795,551
2022-03-19T03:53:01,42.805,6.029,CST-1368DR,4841,5807,12802,0.795,551
2022-03-19T03:56:03,42.805,6.029,CST-1368DR,4841,5808,12803,0.794,551
2022-03-19T03:59:04,42.805,6.029,CST-1368DR,4841,5808,12803,0.794,551
2022-03-19T04:02:06,42.805,6.029,CST-1368DR,4841,5808,12804,0.794,551
2022-03-19T04:05:07,42.805,6.029,CST-1368DR,4841,5806,12798,0.796,551
2022-03-19T04:08:09,42.805,6.029,CST-1368DR,4841,5801,12787,0.799,551
2022-03-19T04:11:11,42.805,6.029,CST-1368DR,4841,5804,12794,0.797,551
2022-03-19T04:14:12,42.805,6.029,CST-1368DR,4841,5804,12794,0.797,551
2022-03-19T04:17:14,42.805,6.029,CST-1368DR,4841,5803,12791,0.798,551
2022-03-19T04:20:15,42.805,6.029,CST-1368DR,4841,5804,12794,0.797,551
2022-03-19T04:23:17,42.805,6.029,CST-1368DR,4841,5805,12796,0.797,551
2022-03-19T04:26:18,42.805,6.029,CST-1368DR,4841,5803,12792,0.798,551
2022-03-19T04:29:20,42.805,6.029,CST-1368DR,4841,5803,12792,0.798,551
2022-03-19T04:32:22,42.805,6.029,CST-1368DR,4841,5803,12792,0.798,551
2022-03-19T04:35:23,42.805,6.029,CST-1368DR,4841,5805,12796,0.797,551
2022-03-19T04:38:25,42.805,6.029,CST-1368DR,4841,5805,12797,0.796,551
2022-03-19T04:41:26,42.805,6.029,CST-1368DR,4841,5800,12786,0.800,551
2022-03-19T04:44:28,42.805,6.029,CST-1368DR,4841,5798,12782,0.801,551
2022-03-19T04:47:29,42.805,6.029,CST-1368DR,4841,5802,12789,0.799,551
2022-03-19T04:50:31,42.805,6.029,CST-1368DR,4841,5801,12787,0.799,551
2022-03-19T04:53:33,42.805,6.029,CST-1368DR,4841,5802,12789,0.799,551
2022-03-19T04:56:34,42.805,6.029,CST-1368DR,4841,5798,12781,0.801,551
2022-03-19T04:59:36,42.805,6.029,CST-1368DR,4841,5799,12784,0.800,551
2022-03-19T05:02:37,42.805,6.029,CST-1368DR,4841,5800,12785,0.800,551
2022-03-19T05:05:39,42.805,6.029,CST-1368DR,4841,5803,12792,0.798,551
2022-03-19T05:08:41,42.805,6.029,CST-1368DR,4841,5797,12778,0.802,551
2022-03-19T05:11:42,42.805,6.029,CST-1368DR,4841,5802,12790,0.799,551
2022-03-19T05:14:44,42.805,6.029,CST-1368DR,4841,5798,12781,0.801,551
2022-03-19T05:17:45,42.805,6.029,CST-1368DR,4841,5800,12786,0.800,551
2022-03-19T05:20:47,42.805,6.029,CST-1368DR,4841,5803,12793,0.798,551
2022-03-19T05:23:48,42.805,6.029,CST-1368DR,4841,5801,12787,0.799,551
2022-03-19T05:26:50,42.805,6.029,CST-1368DR,4841,5798,12781,0.801,551
2022-03-19T05:29:52,42.805,6.029,CST-1368DR,4841,5802,12791,0.798,551
2022-03-19T05:32:53,42.805,6.029,CST-1368DR,4841,5803,12791,0.798,551
2022-03-19T05:35:55,42.805,6.029,CST-1368DR,4841,5802,12790,0.799,551
2022-03-19T05:38:56,42.805,6.029,CST-1368DR,4841,5796,12776,0.803,551
2022-03-19T05:41:58,42.805,6.029,CST-1368DR,4841,5802,12791,0.798,551
2022-03-19T05:45:00,42.805,6.029,CST-1368DR,4841,5803,12792,0.798,551
2022-03-19T05:48:01,42.805,6.029,CST-1368DR,4841,5797,12778,0.802,551
2022-03-19T05:51:03,42.805,6.029,CST-1368DR,4841,5798,12781,0.801,551
2022-03-19T05:54:04,42.805,6.029,CST-1368DR,4841,5804,12793,0.798,551
2022-03-19T05:57:06,42.805,6.029,CST-1368DR,4841,5804,12793,0.798,551
2022-03-19T06:00:07,42.805,6.029,CST-1368DR,4841,5800,12786,0.800,550
2022-03-19T06:03:09,42.805,6.029,CST-1368DR,4841,5800,12786,0.800,551
2022-03-19T06:06:11,42.805,6.029,CST-1368DR,4841,5799,12783,0.801,551
2022-03-19T06:09:12,42.805,6.029,CST-1368DR,4841,5807,12801,0.795,551
2022-03-19T06:12:14,42.805,6.029,CST-1368DR,4841,5807,12801,0.795,551
2022-03-19T06:15:15,42.805,6.029,CST-1368DR,4841,5800,12785,0.800,551
2022-03-19T06:18:17,42.805,6.029,CST-1368DR,4841,5805,12797,0.796,551
2022-03-19T06:21:18,42.805,6.029,CST-1368DR,4841,5801,12787,0.799,551
2022-03-19T06:24:20,42.805,6.029,CST-1368DR,4841,5805,12796,0.797,551
2022-03-19T06:27:22,42.805,6.029,CST-1368DR,4841,5798,12781,0.801,551
2022-03-19T06:30:23,42.805,6.029,CST-1368DR,4841,5800,12786,0.800,551
2022-03-19T06:33:25,42.805,6.029,CST-1368DR,4841,5800,12785,0.800,551
2022-03-19T06:36:26,42.805,6.029,CST-1368DR,4841,5802,12790,0.799,551
2022-03-19T06:39:28,42.805,6.029,CST-1368DR,4841,5800,12786,0.800,551
2022-03-19T06:42:29,42.805,6.029,CST-1368DR,4841,5803,12792,0.798,551
2022-03-19T06:45:31,42.805,6.029,CST-1368DR,4840,5806,12800,0.795,551
2022-03-19T06:48:33,42.805,6.029,CST-1368DR,4840,5802,12793,0.798,551
2022-03-19T06:51:34,42.805,6.029,CST-1368DR,4840,5796,12779,0.802,551
2022-03-19T06:54:36,42.805,6.029,CST-1368DR,4841,5795,12774,0.804,551
2022-03-19T06:57:37,42.805,6.029,CST-1368DR,4840,5803,12794,0.797,551
2022-03-19T07:00:39,42.805,6.029,CST-1368DR,4840,5798,12784,0.800,551
2022-03-19T07:03:41,42.805,6.029,CST-1368DR,4840,5802,12793,0.798,551
2022-03-19T07:06:42,42.805,6.029,CST-1368DR,4840,5807,12803,0.794,551
2022-03-19T07:09:44,42.805,6.029,CST-1368DR,4840,5803,12794,0.797,551
2022-03-19T07:12:45,42.805,6.029,CST-1368DR,4840,5802,12792,0.798,551
2022-03-19T07:15:47,42.805,6.029,CST-1368DR,4840,5795,12777,0.803,551
2022-03-19T07:18:48,42.805,6.029,CST-1368DR,4840,5795,12778,0.802,550
2022-03-19T07:21:50,42.805,6.029,CST-1368DR,4840,5804,12796,0.797,551
2022-03-19T07:24:52,42.805,6.029,CST-1368DR,4840,5805,12800,0.795,551
2022-03-19T07:27:53,42.805,6.029,CST-1368DR,4840,5803,12795,0.797,551
2022-03-19T07:30:55,42.805,6.029,CST-1368DR,4840,5802,12793,0.798,551
2022-03-19T07:33:56,42.805,6.029,CST-1368DR,4840,5805,12800,0.795,551
2022-03-19T07:36:58,42.805,6.029,CST-1368DR,4840,5796,12780,0.802,551
2022-03-19T07:39:59,42.805,6.029,CST-1368DR,4841,5801,12788,0.799,551
2022-03-19T07:43:01,42.805,6.029,CST-1368DR,4840,5798,12783,0.801,551
2022-03-19T07:46:03,42.805,6.029,CST-1368DR,4840,5796,12779,0.802,550
2022-03-19T07:49:04,42.805,6.029,CST-1368DR,4840,5800,12787,0.799,551
2022-03-19T07:52:06,42.805,6.029,CST-1368DR,4840,5800,12787,0.799,551
2022-03-19T07:55:07,42.805,6.029,CST-1368DR,4840,5803,12795,0.797,551
2022-03-19T07:58:09,42.805,6.029,CST-1368DR,4840,5798,12783,0.801,551
2022-03-19T08:01:11,42.805,6.029,CST-1368DR,4840,5793,12772,0.804,551
2022-03-19T08:04:12,42.805,6.029,CST-1368DR,4840,5791,12768,0.805,551
2022-03-19T08:07:14,42.805,6.029,CST-1368DR,4840,5794,12774,0.804,551
2022-03-19T08:10:15,42.805,6.029,CST-1368DR,4840,5795,12778,0.802,551
2022-03-19T08:13:17,42.805,6.029,CST-1368DR,4840,5797,12782,0.801,551
2022-03-19T08:16:18,42.805,6.029,CST-1368DR,4840,5798,12783,0.801,551
2022-03-19T08:19:20,42.805,6.029,CST-1368DR,4840,5793,12773,0.804,551
2022-03-19T08:22:22,42.805,6.029,CST-1368DR,4840,5793,12772,0.804,551
2022-03-19T08:25:23,42.805,6.029,CST-1368DR,4840,5792,12771,0.804,551
2022-03-19T08:28:25,42.805,6.029,CST-1368DR,4840,5795,12778,0.802,551
2022-03-19T08:31:26,42.805,6.029,CST-1368DR,4840,5799,12787,0.799,551
2022-03-19T08:34:28,42.805,6.029,CST-1368DR,4840,5797,12782,0.801,551
2022-03-19T08:37:29,42.805,6.029,CST-1368DR,4840,5793,12772,0.804,551
2022-03-19T08:40:31,42.805,6.029,CST-1368DR,4840,5800,12788,0.799,551
2022-03-19T08:43:33,42.805,6.029,CST-1368DR,4840,5800,12787,0.799,551
2022-03-19T08:46:34,42.805,6.029,CST-1368DR,4840,5796,12779,0.802,551
2022-03-19T08:49:36,42.805,6.029,CST-1368DR,4840,5794,12775,0.803,551
2022-03-19T08:52:37,42.805,6.029,CST-1368DR,4840,5801,12790,0.799,551
2022-03-19T08:55:39,42.805,6.029,CST-1368DR,4840,5801,12791,0.798,551
2022-03-19T08:58:41,42.805,6.029,CST-1368DR,4840,5798,12784,0.800,551
2022-03-19T09:01:42,42.805,6.029,CST-1368DR,4840,5800,12788,0.799,551
2022-03-19T09:04:44,42.805,6.029,CST-1368DR,4840,5798,12784,0.800,551
2022-03-19T09:07:45,42.805,6.029,CST-1368DR,4840,5793,12773,0.804,551
2022-03-19T09:10:47,42.805,6.029,CST-1368DR,4840,5793,12773,0.804,551
2022-03-19T09:13:48,42.805,6.029,CST-1368DR,4840,5793,12773,0.804,551
2022-03-19T09:16:50,42.805,6.029,CST-1368DR,4840,5797,12781,0.801,551
2022-03-19T09:19:52,42.805,6.029,CST-1368DR,4840,5801,12790,0.799,551
2022-03-19T09:22:53,42.805,6.029,CST-1368DR,4840,5800,12789,0.799,551
2022-03-19T09:25:55,42.805,6.029,CST-1368DR,4840,5802,12791,0.798,551
2022-03-19T09:28:56,42.805,6.029,CST-1368DR,4840,5800,12788,0.799,551
2022-03-19T09:31:58,42.805,6.029,CST-1368DR,4840,5796,12779,0.802,551
2022-03-19T09:35:00,42.805,6.029,CST-1368DR,4840,5799,12785,0.800,551
2022-03-19T09:38:01,42.805,6.029,CST-1368DR,4840,5801,12791,0.798,551
2022-03-19T09:41:03,42.805,6.029,CST-1368DR,4840,5803,12794,0.797,551
2022-03-19T09:44:04,42.805,6.029,CST-1368DR,4840,5795,12778,0.802,551
2022-03-19T09:47:06,42.805,6.029,CST-1368DR,4840,5792,12771,0.804,551
2022-03-19T09:50:07,42.805,6.029,CST-1368DR,4840,5796,12779,0.802,551
2022-03-19T09:53:09,42.805,6.029,CST-1368DR,4840,5790,12767,0.806,551
2022-03-19T09:56:11,42.805,6.029,CST-1368DR,4840,5789,12763,0.807,551
2022-03-19T09:59:12,42.805,6.029,CST-1368DR,4840,5795,12777,0.803,551
2022-03-19T10:02:14,42.805,6.029,CST-1368DR,4840,5797,12782,0.801,551
2022-03-19T10:05:15,42.805,6.029,CST-1368DR,4840,5796,12780,0.802,551
2022-03-19T10:08:17,42.805,6.029,CST-1368DR,4840,5794,12775,0.803,551
2022-03-19T10:11:18,42.805,6.029,CST-1368DR,4840,5797,12782,0.801,551
2022-03-19T10:14:20,42.805,6.029,CST-1368DR,4840,5798,12784,0.800,551
2022-03-19T10:17:22,42.805,6.029,CST-1368DR,4840,5799,12787,0.799,551
2022-03-19T10:20:23,42.805,6.029,CST-1368DR,4840,5798,12784,0.800,551
2022-03-19T10:23:25,42.805,6.029,CST-1368DR,4840,5796,12778,0.802,551
2022-03-19T10:26:26,42.805,6.029,CST-1368DR,4840,5800,12789,0.799,550
2022-03-19T10:29:28,42.805,6.029,CST-1368DR,4840,5801,12789,0.799,551
2022-03-19T10:32:30,42.805,6.029,CST-1368DR,4840,5799,12785,0.800,551
2022-03-19T10:35:31,42.805,6.029,CST-1368DR,4840,5800,12788,0.799,551
2022-03-19T10:38:33,42.805,6.029,CST-1368DR,4840,5802,12793,0.798,551
2022-03-19T10:41:34,42.805,6.029,CST-1368DR,4840,5803,12795,0.797,551
2022-03-19T10:44:36,42.805,6.029,CST-1368DR,4840,5795,12778,0.802,551
2022-03-19T10:47:37,42.805,6.029,CST-1368DR,4840,5795,12776,0.803,551
2022-03-19T10:50:39,42.805,6.029,CST-1368DR,4840,5800,12789,0.799,551
2022-03-19T10:53:41,42.805,6.029,CST-1368DR,4840,5799,12786,0.800,551
2022-03-19T10:56:42,42.805,6.029,CST-1368DR,4840,5800,12789,0.799,551
2022-03-19T10:59:44,42.805,6.029,CST-1368DR,4840,5793,12772,0.804,551
2022-03-19T11:02:45,42.805,6.029,CST-1368DR,4840,5797,12782,0.801,551
2022-03-19T11:05:47,42.805,6.029,CST-1368DR,4840,5800,12788,0.799,551
2022-03-19T11:08:49,42.805,6.029,CST-1368DR,4840,5805,12798,0.796,551
2022-03-19T11:11:50,42.805,6.029,CST-1368DR,4840,5799,12785,0.800,551
2022-03-19T11:14:52,42.805,6.029,CST-1368DR,4840,5796,12780,0.802,551
2022-03-19T11:17:53,42.805,6.029,CST-1368DR,4840,5797,12780,0.802,551
2022-03-19T11:20:55,42.805,6.029,CST-1368DR,4840,5797,12782,0.801,551
2022-03-19T11:23:56,42.805,6.029,CST-1368DR,4840,5795,12777,0.803,551
2022-03-19T11:26:58,42.805,6.029,CST-1368DR,4840,5793,12772,0.804,551
2022-03-19T11:30:00,42.805,6.029,CST-1368DR,4840,5793,12773,0.804,551
2022-03-19T11:33:01,42.805,6.029,CST-1368DR,4840,5796,12779,0.802,551
2022-03-19T11:36:03,42.805,6.029,CST-1368DR,4840,5795,12778,0.802,551
2022-03-19T11:39:04,42.805,6.029,CST-1368DR,4840,5792,12770,0.805,551
2022-03-19T11:42:06,42.805,6.029,CST-1368DR,4840,5781,12747,0.812,551
2022-03-19T11:45:07,42.805,6.029,CST-1368DR,4840,5794,12774,0.804,551
2022-03-19T11:48:09,42.805,6.029,CST-1368DR,4840,5793,12772,0.804,551
2022-03-19T11:51:11,42.805,6.029,CST-1368DR,4840,5796,12778,0.802,551
2022-03-19T11:54:12,42.805,6.029,CST-1368DR,4840,5791,12767,0.806,551
2022-03-19T11:57:14,42.805,6.029,CST-1368DR,4840,5793,12772,0.804,551
2022-03-19T12:00:15,42.805,6.029,CST-1368DR,4840,5801,12790,0.799,551
2022-03-19T12:03:17,42.805,6.029,CST-1368DR,4840,5792,12769,0.805,551
2022-03-19T12:06:18,42.805,6.029,CST-1368DR,4840,5798,12784,0.800,551
2022-03-19T12:09:20,42.805,6.029,CST-1368DR,4840,5796,12779,0.802,551
2022-03-19T12:12:22,42.805,6.029,CST-1368DR,4840,5787,12760,0.808,551
2022-03-19T12:15:23,42.805,6.029,CST-1368DR,4840,5792,12771,0.804,551
2022-03-19T12:18:25,42.805,6.029,CST-1368DR,4840,5794,12774,0.804,551
2022-03-19T12:21:26,42.805,6.029,CST-1368DR,4840,5793,12773,0.804,551
2022-03-19T12:24:28,42.805,6.029,CST-1368DR,4840,5796,12778,0.802,551
2022-03-19T12:27:30,42.805,6.029,CST-1368DR,4840,5795,12777,0.803,551
2022-03-19T12:30:31,42.805,6.029,CST-1368DR,4840,5799,12785,0.800,551
2022-03-19T12:33:33,42.805,6.029,CST-1368DR,4840,5793,12773,0.804,551
2022-03-19T12:36:34,42.805,6.029,CST-1368DR,4840,5791,12768,0.805,551
2022-03-19T12:39:36,42.805,6.029,CST-1368DR,4840,5792,12771,0.804,551
2022-03-19T12:42:37,42.805,6.029,CST-1368DR,4840,5791,12767,0.806,551
2022-03-19T12:45:39,42.805,6.029,CST-1368DR,4840,5789,12764,0.807,551
2022-03-19T12:48:41,42.805,6.029,CST-1368DR,4840,5790,12766,0.806,551
2022-03-19T12:51:42,42.805,6.029,CST-1368DR,4840,5778,12739,0.815,551
2022-03-19T12:54:44,42.805,6.029,CST-1368DR,4840,5789,12764,0.807,551
2022-03-19T12:57:45,42.805,6.029,CST-1368DR,4840,5790,12766,0.806,551
2022-03-19T13:00:47,42.805,6.029,CST-1368DR,4840,5788,12762,0.807,551
2022-03-19T13:03:48,42.805,6.029,CST-1368DR,4840,5792,12771,0.804,551
2022-03-19T13:06:50,42.805,6.029,CST-1368DR,4840,5787,12760,0.808,551
2022-03-19T13:09:52,42.805,6.029,CST-1368DR,4840,5789,12763,0.807,551
2022-03-19T13:12:53,42.805,6.029,CST-1368DR,4840,5790,12765,0.806,551
2022-03-19T13:15:55,42.805,6.029,CST-1368DR,4840,5791,12767,0.806,551
2022-03-19T13:18:56,42.805,6.029,CST-1368DR,4840,5791,12767,0.806,551
2022-03-19T13:21:58,42.805,6.029,CST-1368DR,4840,5792,12770,0.805,551
2022-03-19T13:24:59,42.805,6.029,CST-1368DR,4840,5787,12760,0.808,551
2022-03-19T13:28:01,42.805,6.029,CST-1368DR,4840,5788,12762,0.807,551
2022-03-19T13:31:03,42.805,6.029,CST-1368DR,4840,5790,12765,0.806,551
2022-03-19T13:34:04,42.805,6.029,CST-1368DR,4840,5789,12763,0.807,551
2022-03-19T13:37:06,42.805,6.029,CST-1368DR,4840,5789,12764,0.807,551
2022-03-19T13:40:07,42.805,6.029,CST-1368DR,4840,5787,12760,0.808,551
2022-03-19T13:43:09,42.805,6.029,CST-1368DR,4840,5786,12758,0.809,551
2022-03-19T13:46:11,42.805,6.029,CST-1368DR,4840,5787,12760,0.808,551
2022-03-19T13:49:12,42.805,6.029,CST-1368DR,4840,5787,12758,0.809,551
2022-03-19T13:52:14,42.805,6.029,CST-1368DR,4840,5785,12754,0.810,551
2022-03-19T13:55:15,42.805,6.029,CST-1368DR,4840,5787,12759,0.808,551
2022-03-19T13:58:17,42.805,6.029,CST-1368DR,4840,5789,12763,0.807,551
2022-03-19T14:01:18,42.805,6.029,CST-1368DR,4840,5795,12776,0.803,551
2022-03-19T14:04:20,42.805,6.029,CST-1368DR,4840,5792,12770,0.805,551
2022-03-19T14:07:22,42.805,6.029,CST-1368DR,4840,5792,12771,0.804,551
2022-03-19T14:10:23,42.805,6.029,CST-1368DR,4840,5786,12758,0.809,551
2022-03-19T14:13:25,42.805,6.029,CST-1368DR,4840,5790,12766,0.806,551
2022-03-19T14:16:26,42.805,6.029,CST-1368DR,4840,5786,12757,0.809,551
2022-03-19T14:19:28,42.805,6.029,CST-1368DR,4840,5785,12755,0.809,551
2022-03-19T14:22:30,42.805,6.029,CST-1368DR,4840,5789,12763,0.807,551
2022-03-19T14:25:31,42.805,6.029,CST-1368DR,4840,5789,12763,0.807,551
2022-03-19T14:28:33,42.805,6.029,CST-1368DR,4840,5783,12750,0.811,551
2022-03-19T14:31:34,42.805,6.029,CST-1368DR,4840,5789,12764,0.807,551
2022-03-19T14:34:36,42.805,6.029,CST-1368DR,4840,5789,12763,0.807,551
2022-03-19T14:37:37,42.805,6.029,CST-1368DR,4840,5787,12759,0.808,551
2022-03-19T14:40:39,42.805,6.029,CST-1368DR,4840,5792,12770,0.805,551
2022-03-19T14:43:41,42.805,6.029,CST-1368DR,4840,5790,12766,0.806,551
2022-03-19T14:46:42,42.805,6.029,CST-1368DR,4840,5795,12776,0.803,551
2022-03-19T14:49:44,42.805,6.029,CST-1368DR,4840,5793,12773,0.804,551
2022-03-19T14:52:45,42.805,6.029,CST-1368DR,4840,5793,12772,0.804,551
2022-03-19T14:55:47,42.805,6.029,CST-1368DR,4840,5797,12782,0.801,551
2022-03-19T14:58:48,42.805,6.029,CST-1368DR,4840,5796,12780,0.802,551
2022-03-19T15:01:50,42.805,6.029,CST-1368DR,4840,5796,12778,0.802,551
2022-03-19T15:04:52,42.805,6.029,CST-1368DR,4840,5795,12778,0.802,551
2022-03-19T15:07:53,42.805,6.029,CST-1368DR,4840,5796,12780,0.802,551
2022-03-19T15:10:55,42.805,6.029,CST-1368DR,4840,5795,12777,0.803,551
2022-03-19T15:13:56,42.805,6.029,CST-1368DR,4840,5796,12778,0.802,551
2022-03-19T15:16:58,42.805,6.029,CST-1368DR,4840,5791,12767,0.806,551
2022-03-19T15:20:00,42.805,6.029,CST-1368DR,4840,5792,12771,0.804,551
2022-03-19T15:23:01,42.805,6.029,CST-1368DR,4840,5793,12773,0.804,551
2022-03-19T15:26:03,42.805,6.029,CST-1368DR,4840,5791,12769,0.805,551
2022-03-19T15:29:04,42.805,6.029,CST-1368DR,4840,5795,12777,0.803,551
2022-03-19T15:32:06,42.805,6.029,CST-1368DR,4840,5793,12773,0.804,551
2022-03-19T15:35:07,42.805,6.029,CST-1368DR,4840,5794,12774,0.804,551
2022-03-19T15:38:09,42.805,6.029,CST-1368DR,4840,5796,12778,0.802,551
2022-03-19T15:41:11,42.805,6.029,CST-1368DR,4840,5795,12776,0.803,551
2022-03-19T15:44:12,42.805,6.029,CST-1368DR,4840,5796,12778,0.802,551
2022-03-19T15:47:14,42.805,6.029,CST-1368DR,4840,5797,12782,0.801,551
2022-03-19T15:50:15,42.805,6.029,CST-1368DR,4840,5797,12782,0.801,551
2022-03-19T15:53:17,42.805,6.029,CST-1368DR,4840,5797,12781,0.801,551
2022-03-19T15:56:18,42.805,6.029,CST-1368DR,4840,5796,12778,0.802,551
2022-03-19T15:59:20,42.805,6.029,CST-1368DR,4840,5799,12785,0.800,551
2022-03-19T16:02:22,42.805,6.029,CST-1368DR,4840,5797,12781,0.801,551
2022-03-19T16:05:23,42.805,6.029,CST-1368DR,4840,5795,12777,0.803,551
2022-03-19T16:08:25,42.805,6.029,CST-1368DR,4840,5794,12775,0.803,551
2022-03-19T16:11:26,42.805,6.029,CST-1368DR,4840,5795,12776,0.803,551
2022-03-19T16:14:28,42.805,6.029,CST-1368DR,4840,5793,12772,0.804,551
2022-03-19T16:17:30,42.805,6.029,CST-1368DR,4840,5792,12771,0.804,551
2022-03-19T16:20:31,42.805,6.029,CST-1368DR,4840,5792,12771,0.804,551
2022-03-19T16:23:33,42.805,6.029,CST-1368DR,4840,5797,12782,0.801,551
2022-03-19T16:26:34,42.805,6.029,CST-1368DR,4840,5794,12775,0.803,551
2022-03-19T16:29:36,42.805,6.029,CST-1368DR,4840,5795,12777,0.803,551
2022-03-19T16:32:37,42.805,6.029,CST-1368DR,4840,5793,12773,0.804,551
2022-03-19T16:35:39,42.805,6.029,CST-1368DR,4840,5793,12773,0.804,551
2022-03-19T16:38:41,42.805,6.029,CST-1368DR,4840,5795,12777,0.803,551
2022-03-19T16:41:42,42.805,6.029,CST-1368DR,4840,5793,12773,0.804,551
2022-03-19T16:44:44,42.805,6.029,CST-1368DR,4840,5790,12766,0.806,551
2022-03-19T16:47:45,42.805,6.029,CST-1368DR,4840,5797,12781,0.801,550
2022-03-19T16:50:47,42.805,6.029,CST-1368DR,4840,5796,12780,0.802,551
2022-03-19T16:53:48,42.805,6.029,CST-1368DR,4840,5795,12777,0.803,551